CW2882 Weather Reports


Display with metric or nautical units.
time (UTC)temp
F
wind
direction
speed
MPH
gust
MPH
rain 1hr
in
rain 24hr
in
rain mn
in
humidity
%
barometer
mb
20260905061531 55 119 0.0 0.0 0.00 0.00 0.00 90 1016.6
20260905060028 55 118 0.0 0.0 0.00 0.00 0.00 90 1016.5
20260905054524 55 119 0.0 1.0 0.00 0.00 0.00 90 1016.4
20260905053026 55 25 0.0 1.0 0.00 0.00 0.00 89 1016.4
20260905051533 55 113 0.0 0.0 0.00 0.00 0.00 88 1016.5
20260905050022 55 113 0.0 0.0 0.00 0.00 0.00 87 1016.5
20260905044523 56 113 0.0 0.0 0.00 0.00 0.00 86 1016.5
20260905043022 56 113 0.0 0.0 0.00 0.00 0.00 85 1016.6
20260905041522 57 113 0.0 1.0 0.00 0.00 0.00 84 1016.6
20260905040021 57 134 0.0 1.0 0.00 0.00 0.00 85 1016.7
20260905034520 57 120 0.0 2.0 0.00 0.00 0.00 84 1016.6
20260905033122 58 171 0.0 2.0 0.00 0.00 0.00 84 1016.4
20260905031516 58 227 0.0 1.0 0.00 0.00 0.00 84 1016.2
20260905030015 58 317 0.0 1.0 0.00 0.00 0.00 83 1015.9
20260905024514 58 317 0.0 0.0 0.00 0.00 0.00 82 1015.8
20260905023013 59 317 0.0 0.0 0.00 0.00 0.00 82 1015.7
20260905021514 60 317 0.0 4.0 0.00 0.00 0.00 81 1015.7
20260905020010 61 320 0.0 5.0 0.00 0.00 0.00 78 1015.6
20260905014509 62 48 1.0 4.0 0.00 0.00 0.00 77 1015.5
20260905013014 62 45 0.0 4.0 0.00 0.00 0.00 77 1015.5
20260905011507 62 29 0.0 6.0 0.00 0.00 0.00 78 1015.4
20260905010007 62 20 2.0 7.0 0.00 0.00 0.00 79 1015.3
20260905004504 62 290 2.0 9.0 0.00 0.00 0.00 78 1015.1
20260905003004 62 8 1.0 7.0 0.00 0.00 0.00 77 1015.0
20260905001502 62 37 1.0 7.0 0.00 0.00 0.00 79 1014.9
20260905000128 61 333 1.0 12.0 0.00 0.00 0.00 80 1014.8
20260904234559 61 85 2.0 12.0 0.00 0.00 0.00 82 1014.8
20260904233100 61 337 3.0 7.0 0.00 0.00 0.00 81 1014.7
20260904231559 61 9 4.0 10.0 0.00 0.00 0.00 81 1014.7
20260904230112 61 46 5.0 13.0 0.00 0.00 0.00 80 1014.6
20260904224557 62 9 5.0 12.0 0.00 0.00 0.00 81 1014.6
20260904223057 63 37 4.0 12.0 0.00 0.00 0.00 79 1014.6
20260904221556 63 67 3.0 11.0 0.00 0.00 0.00 77 1014.6
20260904220055 63 13 3.0 10.0 0.00 0.00 0.00 77 1014.7
20260904214557 63 356 3.0 9.0 0.00 0.00 0.00 78 1014.7
20260904213054 62 313 3.0 7.0 0.00 0.00 0.00 80 1014.7
20260904211553 62 332 4.0 7.0 0.00 0.00 0.00 78 1014.7
20260904210052 62 34 2.0 6.0 0.00 0.00 0.00 79 1014.7
20260904204550 62 309 1.0 5.0 0.00 0.00 0.00 80 1014.6
20260904203050 64 342 2.0 5.0 0.00 0.00 0.00 76 1014.4
20260904201547 63 345 1.0 3.0 0.00 0.00 0.00 79 1014.5
20260904200054 63 312 0.0 6.0 0.00 0.00 0.00 79 1014.5
20260904194545 63 310 2.0 5.0 0.00 0.00 0.00 79 1014.4
20260904193043 61 303 1.0 4.0 0.00 0.00 0.00 82 1014.5
20260904191543 60 288 1.0 4.0 0.00 0.00 0.00 83 1014.6
20260904190044 60 304 1.0 6.0 0.00 0.00 0.00 83 1014.5
20260904184540 62 328 1.0 4.0 0.00 0.00 0.00 82 1014.4
20260904183053 62 23 0.0 4.0 0.00 0.00 0.00 84 1014.3
20260904181540 61 264 0.0 3.0 0.00 0.00 0.00 85 1014.3
20260904180032 59 250 0.0 0.0 0.00 0.00 0.00 90 1014.3
20260904174531 56 311 0.0 2.0 0.00 0.00 0.00 93 1014.4
20260904173026 55 356 0.0 2.0 0.00 0.00 0.00 94 1014.4
20260904171525 55 331 0.0 3.0 0.00 0.00 0.00 94 1014.2
20260904170025 56 310 1.0 3.0 0.00 0.00 0.00 95 1014.2
20260904164522 55 291 0.0 0.0 0.00 0.00 0.00 96 1014.1
20260904163021 54 291 0.0 0.0 0.00 0.00 0.00 96 1014.2
20260904161520 54 229 0.0 0.0 0.00 0.00 0.00 97 1014.3
20260904160016 54 229 0.0 0.0 0.00 0.00 0.00 96 1014.2
20260904154519 53 160 0.0 1.0 0.00 0.00 0.00 96 1014.1
20260904153025 53 137 0.0 1.0 0.00 0.00 0.00 96 1014.0
20260904151511 53 138 0.0 2.0 0.00 0.00 0.00 96 1013.8
20260904150008 53 133 0.0 1.0 0.00 0.01 0.00 96 1013.6
20260904144507 53 199 0.0 2.0 0.00 0.01 0.00 96 1013.4
20260904143009 53 177 1.0 4.0 0.00 0.01 0.00 95 1013.1
20260904141511 53 142 1.0 3.0 0.00 0.01 0.00 95 1013.0
20260904140001 53 188 0.0 1.0 0.00 0.03 0.00 95 1012.9
20260904134602 53 196 0.0 0.0 0.00 0.03 0.00 95 1012.7
20260904133100 53 139 0.0 0.0 0.00 0.03 0.00 95 1012.7
20260904131608 52 110 0.0 0.0 0.00 0.03 0.00 95 1012.6
20260904130055 52 110 0.0 0.0 0.00 0.03 0.00 95 1012.4
20260904124554 52 160 0.0 0.0 0.00 0.03 0.00 95 1012.3
20260904123054 52 160 0.0 0.0 0.00 0.03 0.00 95 1012.3
20260904121552 52 160 0.0 0.0 0.00 0.03 0.00 94 1012.2
20260904120050 52 167 0.0 0.0 0.00 0.03 0.00 94 1011.9
20260904114549 52 169 0.0 0.0 0.00 0.03 0.00 93 1011.8
20260904113048 52 142 0.0 0.0 0.00 0.03 0.00 93 1011.8
20260904111547 52 127 0.0 0.0 0.00 0.03 0.00 94 1011.5
20260904110046 52 129 0.0 0.0 0.00 0.03 0.00 94 1011.5
20260904104545 52 122 0.0 0.0 0.00 0.03 0.00 94 1011.6
20260904103053 52 122 0.0 0.0 0.00 0.03 0.00 94 1011.4
20260904101550 52 122 0.0 0.0 0.00 0.03 0.00 94 1011.4
20260904100042 52 122 0.0 0.0 0.00 0.03 0.00 94 1011.3
20260904094558 52 122 0.0 0.0 0.00 0.03 0.00 94 1011.4
20260904093041 52 122 0.0 0.0 0.00 0.03 0.00 94 1011.4
20260904091540 52 196 0.0 2.0 0.00 0.03 0.00 94 1011.4
20260904090038 52 115 1.0 2.0 0.00 0.03 0.00 94 1011.4
20260904084539 52 212 0.0 3.0 0.00 0.03 0.00 93 1011.3
20260904083042 51 147 0.0 0.0 0.00 0.03 0.00 92 1011.4
20260904081535 52 148 0.0 1.0 0.00 0.03 0.00 91 1011.5
20260904080033 53 205 0.0 3.0 0.00 0.03 0.00 91 1011.5
20260904074538 53 158 1.0 2.0 0.00 0.03 0.00 91 1011.5
20260904073031 53 143 0.0 3.0 0.00 0.03 0.00 91 1011.5
20260904071529 52 201 1.0 3.0 0.00 0.03 0.00 92 1011.4
20260904070027 53 146 1.0 3.0 0.00 0.03 0.03 92 1011.3
20260904064528 53 205 0.0 2.0 0.00 0.03 0.03 91 1011.2
20260904063025 53 177 1.0 3.0 0.00 0.03 0.03 91 1011.2